Regional Weather Roundup
Issued by NWS

Home | Current Version | Previous Version | Graphics & Text | Print | Product List | Glossary On
Versions: 1 2 3 4 5 6 7 8 9 10 11 12 13 14 15 16 17 18 19 20 21 22 23 24 25 26 27 28 29 30 31 32 33 34 35 36 37 38 39 40 41 42 43 44 45 46 47 48 49 50
000
ASUS45 KTFX 141619
RWRMT
MONTANA HOURLY WEATHER ROUNDUP
NATIONAL WEATHER SERVICE GREAT FALLS MT
1019 AM MDT SUN SEP 14 2014

NOTE: "FAIR" INDICATES FEW OR NO CLOUDS BELOW 12000 FEET WITH NO
SIGNIFICANT WEATHER AND/OR OBSTRUCTIONS TO VISIBILITY.

* THESE STATIONS ARE NOT UNDER NWS QUALITY CONTROL. THEY DO NOT
   REPORT WEATHER SUCH AS PRECIPITATION OR FOG.

MTZ001>007-043-141700-
WEST OF THE DIVIDE
CITY           SKY/WX    TMP DP  RH WIND       PRES   REMARKS
KALISPELL      SUNNY     50  37  61 NE13      30.11R
MISSOULA       SUNNY     48  34  59 CALM      30.12S
BUTTE          PTCLDY    43  34  71 CALM      30.14R
MULLAN PASS    SUNNY     48  28  46 S7        30.12R
* LINCOLN      N/A       36  30  79 W1         N/A
* LOOKOUT PASS N/A       45  33  63 SE4        N/A
* POLSON       N/A       48  42  80 NE3        N/A
* RONAN APT    SUNNY     54  37  53 N/A        N/A
* SEELEY LAKE  N/A       42  33  71 S1         N/A
* THOMP F APT  SUNNY     59  29  32 N/A        N/A
$$

MTZ008-052>055-141700-
SOUTHWEST MONTANA
CITY           SKY/WX    TMP DP  RH WIND       PRES   REMARKS
BOZEMAN        PTCLDY    45  36  71 CALM      30.13R
DILLON         SUNNY     46  30  54 SW5       30.12R
W YELLOWSTONE  SUNNY     45  28  51 CALM      30.18S
* THREE FORKS  PTCLDY    45  27  49 N/A        N/A
* BOULDER HILL N/A       45  30  56 SW9        N/A
* MONIDA PASS  N/A       48  29  48 W2         N/A
* RAYNOLDS PAS N/A       51  37  59 S8         N/A
* WHITEHALL    N/A       38  34  86 SW3        N/A
* WISE RIVER   N/A       36  29  76 NW3        N/A
$$

MTZ009>010-012-014-046-048-049-054-141700-
EAST SLOPES AND CENTRAL MONTANA
CITY           SKY/WX    TMP DP  RH WIND       PRES   REMARKS
CUT BANK       SUNNY     45  37  74 CALM      30.11R
GREAT FALLS    SUNNY     46  37  71 SW6       30.11R
HELENA         SUNNY     46  36  68 CALM      30.12S
MALMSTROM AFB  SUNNY     46  37  71 W7        30.13R
* CONRAD       SUNNY     46  41  83 N/A        N/A
* EAST GLACIER N/A       47  32  56 N4         N/A
* MONARCH      N/A       41  31  68 S4         N/A
* PENDROY      N/A       48  34  59 SW4        N/A
* ROGERS PASS  N/A       48  33  56 NW2        N/A
* SAINT MARY   N/A       38  36  93 N/A        N/A
* SWEET GRASS  N/A       44  42  93 S12        N/A
* WHITE SULPH  N/A       45  34  65 NW3        N/A
$$

MTZ011-013-016-021-035-040-045-047-050-051-141700-
NORTH CENTRAL MONTANA
CITY           SKY/WX    TMP DP  RH WIND       PRES   REMARKS
HAVRE          SUNNY     46  39  77 CALM      30.11S
LEWISTOWN      SUNNY     50  36  59 CALM      30.10R
* CHINOOK      PTCLDY    46  41  83 E8        30.12S
* FORT BENTON  SUNNY     46  37  71 SW3       30.13S
* CHESTER      N/A       48  38  68 E2G9       N/A
* DENTON       N/A       50  35  57 NW4        N/A
* GEYSER       N/A       51  35  54 W8         N/A
* JUDITH GAP   N/A       46  36  68 SE5        N/A
* LOMA         N/A       46  38  74 SW2        N/A
$$

MTZ017>020-022>027-061-062-141700-
NORTHEAST MONTANA
CITY           SKY/WX    TMP DP  RH WIND       PRES   REMARKS
GLASGOW        CLOUDY    45  34  65 E13       30.16R
GLENDIVE       CLOUDY    45  36  71 SE5       30.20S
JORDAN         PTSUNNY   48  39  71 E7        30.14S
SIDNEY         SUNNY     46  37  71 CALM      30.21S
WOLF POINT     CLOUDY    45  36  71 CALM      30.19S
* BEAVER HILL  N/A       47  36  66 E8         N/A
* CIRCLE       N/A       46  39  77 E1         N/A
* LINDSAY DVD  N/A       43  36  76 E8         N/A
* NAVAJO       N/A       47  37  68 E2         N/A
* SACO         N/A       43  38  83 NE7        N/A
$$

MTZ028>042-056>058-141700-
SOUTHCENTRAL AND SOUTHEAST MONTANA
CITY           SKY/WX    TMP DP  RH WIND       PRES   REMARKS
BAKER          PTCLDY    48 N/A N/A E8        30.18S
BILLINGS       SUNNY     45  36  71 VRB3      30.12R
LIVINGSTON     PTCLDY    48  36  63 NW8       30.10F
MILES CITY     PTCLDY    52  37  57 SE8       30.15R
* LAUREL APT   PTCLDY    46  36  68 N/A        N/A
* ROUNDUP APT  SUNNY     48  36  63 SW5        N/A
* ALZADA       N/A       48  34  59 E11        N/A
* HYSHAM       N/A       52  31  45 SE11       N/A
* LAME DEER    N/A       45  35  68 E12G17     N/A
* REED POINT   N/A       46  35  66 W4G9       N/A
* ROSCOE HILL  N/A       43  31  63 N/A        N/A
$$

REGIONAL REPORTS...DAKOTAS
CITY           SKY/WX    TMP DP  RH WIND       PRES   REMARKS
WILLISTON      SUNNY     46  37  71 CALM      30.19F
DICKINSON      PTCLDY    48  36  63 E5        30.18R
BEACH          N/A       46  37  71 SE7       30.19S
CROSBY         SUNNY     46  39  77 W3        30.19S
TIOGA          SUNNY     46  41  83 NW6       30.21S
WATFORD CITY   SUNNY     48  37  66 NE5       30.17S
BISMARCK       PTCLDY    48  39  71 NW6       30.19S
GRAND FORKS    CLOUDY    52  45  77 NW10      30.10R
FARGO          SUNNY     55  45  69 NW14      30.10F
BUFFALO SD     PTSUNNY   46  36  68 E10       30.11S
RAPID CITY     CLOUDY    46  37  71 SE9       30.18S
$$

REGIONAL REPORTS...WYOMING/IDAHO/WASHINGTON
CITY           SKY/WX    TMP DP  RH WIND       PRES   REMARKS
GILLETTE       SUNNY     48  37  66 SE18      30.10R
SHERIDAN       SUNNY     45  37  74 NW3       30.10R
CODY           PTCLDY    48  37  66 NE5       30.10R
YELLOWSTONE LA SUNNY     48  37  66 SE5       30.23R
SALMON         SUNNY     50  32  50 CALM      30.11S
MULLAN PASS    SUNNY     48  28  46 S7        30.12S
SAND POINT     SUNNY     54  39  57 NE8       30.07R
SPOKANE        SUNNY     55  37  51 NE8       30.03R
$$

REGIONAL REPORTS...ALBERTA
CITY           SKY/WX    TMP DP  RH WIND       PRES   REMARKS
CALGARY        PTSUNNY   52  39  61 W3        30.09R
LETHBRIDGE     PTCLDY    46  37  71 W7        30.10R
MEDICINE HAT   PTSUNNY   50  41  71 VRB2      30.11R
EDMONTON       SUNNY     52  43  72 W6        30.04S
WATERTON GATE  N/A       50  36  59 NE5        N/A
CARDSTON       N/A       46  39  77 NW8        N/A
$$

REGIONAL REPORTS...SASKATCHEWAN
CITY           SKY/WX    TMP DP  RH WIND       PRES   REMARKS
REGINA         PTSUNNY   46  39  77 S5        30.16S
VAL MARIE      N/A       50  37  61 S6         N/A
ASSINIBOIA     N/A       48  36  63 SW6        N/A
CORONACH       N/A       48  39  71 SE3        N/A

$$



USA.gov is the U.S. government's official web portal to all federal, state and local government web resources and services.